Retour au catalogue

COSMOS 397 DEB

ActifLEO
NORAD 6844·DEBRIS·🇷🇺 Russia

Lancé Feb 25, 1971 depuis Baikonur Cosmodrome

Loading…

Prochains Passages (prochaines 24 heures)

TLE

FraisSource: Space-Track

Époque: Sep 14, 2026, 05:21 UTC

1 06844U 71015CL  26257.22345711  .00001233  00000-0  34571-3 0  9995
2 06844  65.8985 347.7206 0550648  67.8354 298.0194 13.86018105632912

Suivez COSMOS 397 DEB en temps réel avec AllMySat

Download on the App Store